Date String (YYYY-MM-DD hh:mm:ss) UTC,Instrument flags,Ambient pressure (hPa),Sample flow (lpm),Bypass flow (lpm),Sample temperature (°C),Ambient temperature (°C),ASC tube jacket temperature (°C),LED temperature (°C),Box temperature (°C),Sample RH (%),Span deviation,Mass concentration (μg/m³),Mass concentration (μg/m³),Mass concentration (μg/m³)
DateTimeUTC,F1_M11,P_M11,Q1_M11,Q2_M11,T1_M11,T2_M11,T3_M11,T4_M11,T5_M11,U1_M11,ZSPAN_M11,X0_M11,X2_M11,X1_M11
2022-03-02 14:00:00,,0829.4,5.00,0.00,26.1,25.4,00.0,35.0,27.8,09.5,0000.0,0000.78,0000.26,0000.21
2022-03-02 14:01:00,,0829.4,5.01,0.00,26.1,25.4,00.0,35.0,27.9,09.5,0000.0,0000.78,0000.26,0000.21
2022-03-02 14:02:00,,0829.5,4.98,0.00,26.1,25.4,00.0,35.0,27.9,09.5,0000.0,0000.79,0000.27,0000.22
2022-03-02 14:03:00,,0829.5,5.00,0.00,26.1,25.4,00.0,35.0,27.9,09.4,0000.0,0000.40,0000.26,0000.22
2022-03-02 14:04:00,,0829.6,5.00,0.00,26.1,25.4,00.0,35.0,27.9,09.3,0000.0,0000.40,0000.27,0000.22
2022-03-02 14:05:00,,0829.5,5.01,0.00,26.1,25.4,00.0,35.0,27.9,09.3,0000.0,0000.39,0000.26,0000.21
2022-03-02 14:06:00,,0829.5,5.01,0.00,26.1,25.4,00.0,35.0,27.9,09.3,0000.0,0000.42,0000.28,0000.22
2022-03-02 14:07:00,,0829.5,5.00,0.00,26.1,25.4,00.0,35.1,28.0,09.7,0000.0,0000.49,0000.32,0000.23
2022-03-02 14:08:00,,0829.5,5.00,0.00,26.1,25.4,00.0,35.1,28.0,10.2,0000.0,0000.51,0000.33,0000.24
2022-03-02 14:09:00,,0829.5,5.00,0.00,26.2,25.4,00.0,35.1,28.0,10.1,0000.0,0000.47,0000.31,0000.23
2022-03-02 14:10:00,,0829.5,5.00,0.00,26.2,25.5,00.0,35.1,28.0,09.7,0000.0,0000.46,0000.31,0000.23
2022-03-02 14:11:00,,0829.5,5.01,0.00,26.2,25.5,00.0,35.1,28.0,09.8,0000.0,0000.41,0000.29,0000.23
2022-03-02 14:12:00,,0829.5,4.99,0.00,26.2,25.5,00.0,35.1,28.0,09.8,0000.0,0000.42,0000.29,0000.23
2022-03-02 14:13:00,,0829.5,4.99,0.00,26.2,25.5,00.0,35.1,28.0,09.7,0000.0,0000.52,0000.30,0000.22
2022-03-02 14:14:00,,0829.5,5.01,0.00,26.2,25.5,00.0,35.1,28.0,09.7,0000.0,0000.56,0000.32,0000.23
2022-03-02 14:15:00,,0829.5,4.98,0.00,26.2,25.6,00.0,35.1,28.1,09.8,0000.0,0000.57,0000.32,0000.24
2022-03-02 14:16:00,,0829.5,5.01,0.00,26.3,25.6,00.0,35.1,28.1,09.7,0000.0,0000.69,0000.34,0000.24
2022-03-02 14:17:00,,0829.5,5.00,0.00,26.3,25.6,00.0,35.2,28.1,09.5,0000.0,0000.71,0000.33,0000.24
2022-03-02 14:18:00,,0829.5,4.99,0.00,26.3,25.6,00.0,35.2,28.1,09.5,0000.0,0000.65,0000.30,0000.23
2022-03-02 14:19:00,,0829.5,5.00,0.00,26.3,25.6,00.0,35.2,28.2,09.5,0000.0,0000.62,0000.28,0000.23
2022-03-02 14:20:00,,0829.5,5.01,0.00,26.3,25.6,00.0,35.2,28.2,09.4,0000.0,0000.63,0000.28,0000.23
2022-03-02 14:21:00,,0829.5,5.01,0.00,26.4,25.7,00.0,35.2,28.2,09.3,0000.0,0000.63,0000.28,0000.22
2022-03-02 14:22:00,,0829.5,4.99,0.00,26.4,25.7,00.0,35.2,28.2,09.3,0000.0,0000.64,0000.29,0000.22
2022-03-02 14:23:00,,0829.5,5.01,0.00,26.4,25.7,00.0,35.2,28.2,09.2,0000.0,0000.64,0000.29,0000.22
2022-03-02 14:24:00,,0829.5,5.00,0.00,26.4,25.7,00.0,35.3,28.2,09.2,0000.0,0000.57,0000.29,0000.22
2022-03-02 14:25:00,,0829.5,5.00,0.00,26.4,25.7,00.0,35.3,28.3,09.2,0000.0,0000.55,0000.28,0000.21
2022-03-02 14:26:00,,0829.5,5.00,0.00,26.4,25.8,00.0,35.3,28.3,09.2,0000.0,0000.55,0000.28,0000.21
2022-03-02 14:27:00,,0829.5,4.99,0.00,26.5,25.8,00.0,35.3,28.3,09.1,0000.0,0000.46,0000.27,0000.22
2022-03-02 14:28:00,,0829.5,5.00,0.00,26.5,25.8,00.0,35.3,28.3,09.1,0000.0,0000.42,0000.28,0000.21
2022-03-02 14:29:00,,0829.5,5.01,0.00,26.5,25.8,00.0,35.3,28.3,10.0,0000.0,0000.45,0000.29,0000.22
2022-03-02 14:30:00,,0829.4,4.98,0.00,26.5,25.8,00.0,35.4,28.4,10.2,0000.0,0000.48,0000.31,0000.22
2022-03-02 14:31:00,,0829.5,5.00,0.00,26.5,25.8,00.0,35.4,28.4,09.2,0000.0,0000.48,0000.31,0000.22
2022-03-02 14:32:00,,0829.5,5.00,0.00,26.6,25.9,00.0,35.4,28.4,09.1,0000.0,0000.48,0000.31,0000.23
2022-03-02 14:33:00,,0829.5,5.00,0.00,26.6,25.9,00.0,35.4,28.4,09.0,0000.0,0000.55,0000.32,0000.23
2022-03-02 14:34:00,,0829.5,4.98,0.00,26.6,25.9,00.0,35.4,28.4,08.9,0000.0,0000.62,0000.34,0000.23
2022-03-02 14:35:00,,0829.5,5.00,0.00,26.6,25.9,00.0,35.4,28.4,08.8,0000.0,0000.61,0000.33,0000.23
2022-03-02 14:36:00,,0829.6,5.01,0.00,26.6,25.9,00.0,35.5,28.4,09.6,0000.0,0000.60,0000.33,0000.23
2022-03-02 14:37:00,,0829.5,4.98,0.00,26.6,25.9,00.0,35.5,28.5,09.0,0000.0,0000.63,0000.34,0000.23
2022-03-02 14:38:00,,0829.5,5.00,0.00,26.7,26.0,00.0,35.5,28.5,08.8,0000.0,0000.68,0000.35,0000.23
2022-03-02 14:39:00,,0829.5,5.00,0.00,26.7,26.0,00.0,35.5,28.5,08.7,0000.0,0000.68,0000.35,0000.23
2022-03-02 14:40:00,,0829.6,5.00,0.00,26.7,26.0,00.0,35.5,28.5,08.7,0000.0,0000.68,0000.35,0000.23
2022-03-02 14:41:00,,0829.6,5.00,0.00,26.7,26.0,00.0,35.5,28.5,08.7,0000.0,0000.68,0000.35,0000.23
2022-03-02 14:42:00,,0829.6,5.00,0.00,26.7,26.0,00.0,35.6,28.6,08.7,0000.0,0000.68,0000.35,0000.24
2022-03-02 14:43:00,,0829.6,5.01,0.00,26.7,26.0,00.0,35.6,28.6,08.7,0000.0,0000.69,0000.34,0000.23
2022-03-02 14:44:00,,0829.6,4.98,0.00,26.7,26.0,00.0,35.6,28.6,09.0,0000.0,0000.64,0000.34,0000.23
2022-03-02 14:45:00,,0829.6,5.00,0.00,26.8,26.1,00.0,35.6,28.6,12.0,0000.0,0000.67,0000.35,0000.23
2022-03-02 14:46:00,,0829.6,5.01,0.00,26.8,26.1,00.0,35.6,28.6,12.6,0000.0,0000.74,0000.36,0000.24
2022-03-02 14:47:00,,0829.6,4.99,0.00,26.8,26.1,00.0,35.6,28.7,11.8,0000.0,0000.74,0000.36,0000.23
2022-03-02 14:48:00,,0829.6,4.99,0.00,26.8,26.1,00.0,35.6,28.7,11.9,0000.0,0000.74,0000.36,0000.24
2022-03-02 14:49:00,,0829.6,5.01,0.00,26.8,26.1,00.0,35.7,28.7,11.0,0000.0,0000.70,0000.35,0000.25
2022-03-02 14:50:00,,0829.6,5.01,0.00,26.9,26.2,00.0,35.7,28.7,10.3,0000.0,0000.66,0000.34,0000.25
2022-03-02 14:51:00,,0829.5,4.99,0.00,26.9,26.2,00.0,35.7,28.7,09.5,0000.0,0000.63,0000.33,0000.24
2022-03-02 14:52:00,,0829.5,5.00,0.00,26.9,26.2,00.0,35.7,28.7,09.5,0000.0,0000.62,0000.32,0000.24
2022-03-02 14:53:00,,0829.5,5.01,0.00,26.9,26.2,00.0,35.7,28.7,10.2,0000.0,0000.61,0000.32,0000.24
2022-03-02 14:54:00,,0829.5,5.00,0.00,26.9,26.2,00.0,35.7,28.8,09.9,0000.0,0000.64,0000.33,0000.24
2022-03-02 14:55:00,,0829.5,5.00,0.00,26.9,26.2,00.0,35.8,28.8,08.9,0000.0,0000.62,0000.33,0000.24
2022-03-02 14:56:00,,0829.5,4.99,0.00,27.0,26.2,00.0,35.8,28.8,08.9,0000.0,0000.54,0000.31,0000.24
2022-03-02 14:57:00,,0829.5,4.98,0.00,27.0,26.2,00.0,35.8,28.8,09.4,0000.0,0000.42,0000.29,0000.23
2022-03-02 14:58:00,,0829.5,5.00,0.00,27.0,26.3,00.0,35.8,28.8,08.9,0000.0,0000.39,0000.27,0000.22
2022-03-02 14:59:00,,0829.6,5.00,0.00,27.0,26.3,00.0,35.8,28.9,08.8,0000.0,0000.36,0000.26,0000.22
